Location: York
(31.8935°S, 116.7682°E)
Time: 17:28:50
(UTC+08:00)

deb Explorer IX - Pass Details

Date: 01 October 2022
Orbit: 533 x 1057 km, 38.8° (Epoch: 30 November)

Event Time Altitude Azimuth Distance (km) Brightness Sun altitude
Rises 18:17:09 0° 304° (NW) 3,643 ? -1.4°
Reaches altitude 10° 18:19:57 10° 306° (NW) 2,628 ? -1.9°
Maximum altitude 18:26:11 69° 28° (NNE) 890 ? -3.3°
Drops below altitude 10° 18:31:32 10° 110° (ESE) 2,270 ? -4.4°
Enters shadow 18:33:23 - 112° (ESE) 2,952 ? -4.8°
Sets 18:33:49 0° 112° (ESE) 3,114 - -4.9°
